• In Belarus
  • List of Countries
  • For 7 days
  • Water Temperature
  • Weather Map
  • Weather Widgets
  • user-avatar
    Login

    Hourly Weather La Massana

    Today, 19 August, Monday

    Time Temperature Precipitation Wind Pressure Humidity
    00:00 +13°C° 0.1 mm 1 mps 612 mmHg 92%
    01:00 +12°C° 0 mm 1 mps 612 mmHg 92%
    02:00 +12°C° 0 mm 1 mps 612 mmHg 93%
    03:00 +12°C° 0 mm 1 mps 612 mmHg 93%
    04:00 +12°C° 0 mm 1 mps 612 mmHg 93%
    05:00 +12°C° 0 mm 1 mps 612 mmHg 92%
    06:00 +12°C° 0 mm 1 mps 613 mmHg 92%
    07:00 +13°C° 0 mm 1 mps 613 mmHg 86%
    08:00 +15°C° 0 mm 1 mps 614 mmHg 80%
    09:00 +17°C° 0 mm 2 mps 615 mmHg 74%
    10:00 +18°C° 0 mm 2 mps 616 mmHg 67%
    11:00 +19°C° 0 mm 3 mps 616 mmHg 59%
    12:00 +20°C° 0 mm 3 mps 617 mmHg 52%
    13:00 +20°C° 0 mm 3 mps 616 mmHg 52%
    14:00 +19°C° 0 mm 3 mps 616 mmHg 52%
    15:00 +19°C° 0 mm 3 mps 616 mmHg 52%
    16:00 +18°C° 0.1 mm 2 mps 615 mmHg 60%
    17:00 +17°C° 0.1 mm 2 mps 614 mmHg 68%
    18:00 +15°C° 0.1 mm 1 mps 614 mmHg 76%
    19:00 +14°C° 0.7 mm 1 mps 614 mmHg 81%
    20:00 +14°C° 0.7 mm 1 mps 614 mmHg 86%
    21:00 +12°C° 0.7 mm 0 mps 614 mmHg 91%
    22:00 +12°C° 0.8 mm 0 mps 614 mmHg 92%
    23:00 +11°C° 0.8 mm 0 mps 613 mmHg 93%

    Tomorrow, 20 August, Tuesday

    Time Temperature Precipitation Wind Pressure Humidity
    00:00 +11°C° 0.8 mm 0 mps 613 mmHg 94%
    01:00 +12°C° 0.1 mm 1 mps 613 mmHg 95%
    02:00 +12°C° 0.1 mm 1 mps 613 mmHg 96%
    03:00 +11°C° 0.1 mm 1 mps 613 mmHg 96%
    04:00 +11°C° 1 mm 1 mps 613 mmHg 96%
    05:00 +11°C° 1 mm 1 mps 613 mmHg 96%
    06:00 +11°C° 1 mm 1 mps 613 mmHg 96%
    07:00 +11°C° 2.7 mm 1 mps 613 mmHg 95%
    08:00 +9°C° 2.7 mm 2 mps 614 mmHg 94%
    09:00 +9°C° 2.7 mm 2 mps 614 mmHg 93%
    10:00 +9°C° 4 mm 2 mps 614 mmHg 93%
    11:00 +9°C° 4 mm 1 mps 614 mmHg 93%
    12:00 +8°C° 4 mm 1 mps 614 mmHg 93%
    13:00 +10°C° 0.8 mm 1 mps 614 mmHg 90%
    14:00 +11°C° 0.8 mm 1 mps 615 mmHg 86%
    15:00 +12°C° 0.8 mm 2 mps 615 mmHg 83%
    16:00 +10°C° 0.1 mm 2 mps 615 mmHg 85%
    17:00 +9°C° 0.1 mm 2 mps 614 mmHg 87%
    18:00 +8°C° 0.1 mm 2 mps 614 mmHg 89%
    19:00 +7°C° 0 mm 2 mps 614 mmHg 90%
    20:00 +7°C° 0 mm 2 mps 614 mmHg 91%
    21:00 +6°C° 0 mm 2 mps 614 mmHg 93%
    22:00 +5°C° 0 mm 2 mps 613 mmHg 90%
    23:00 +5°C° 0 mm 2 mps 613 mmHg 88%

    Day after tomorrow, 21 August, Wednesday

    Time Temperature Precipitation Wind Pressure Humidity
    00:00 +4°C° 0 mm 2 mps 613 mmHg 86%
    01:00 +4°C° 0 mm 2 mps 613 mmHg 80%
    02:00 +4°C° 0 mm 2 mps 613 mmHg 74%
    03:00 +4°C° 0 mm 2 mps 612 mmHg 68%
    04:00 +5°C° 0 mm 2 mps 613 mmHg 64%
    05:00 +5°C° 0 mm 2 mps 613 mmHg 59%
    06:00 +7°C° 0 mm 1 mps 613 mmHg 54%
    07:00 +10°C° 0 mm 1 mps 614 mmHg 48%
    08:00 +12°C° 0 mm 1 mps 615 mmHg 41%
    09:00 +15°C° 0 mm 1 mps 617 mmHg 35%
    10:00 +16°C° 0 mm 1 mps 617 mmHg 34%
    11:00 +18°C° 0 mm 1 mps 617 mmHg 34%
    12:00 +19°C° 0 mm 1 mps 617 mmHg 33%
    13:00 +19°C° 0 mm 1 mps 617 mmHg 34%
    14:00 +19°C° 0 mm 1 mps 617 mmHg 35%
    15:00 +19°C° 0 mm 2 mps 616 mmHg 36%
    16:00 +18°C° 0 mm 1 mps 616 mmHg 46%
    17:00 +15°C° 0 mm 1 mps 615 mmHg 56%
    18:00 +13°C° 0 mm 1 mps 614 mmHg 66%
    19:00 +12°C° 0 mm 1 mps 614 mmHg 66%
    20:00 +9°C° 0 mm 2 mps 613 mmHg 67%
    21:00 +8°C° 0 mm 2 mps 613 mmHg 68%
    22:00 +7°C° 0 mm 2 mps 613 mmHg 60%
    23:00 +7°C° 0 mm 2 mps 613 mmHg 52%

    22 August, Thursday

    Time Temperature Precipitation Wind Pressure Humidity
    00:00 +7°C° 0 mm 2 mps 613 mmHg 44%
    01:00 +7°C° 0 mm 2 mps 613 mmHg 42%
    02:00 +6°C° 0 mm 2 mps 613 mmHg 41%
    03:00 +6°C° 0 mm 2 mps 612 mmHg 39%
    04:00 +6°C° 0 mm 2 mps 613 mmHg 41%
    05:00 +6°C° 0 mm 2 mps 613 mmHg 43%
    06:00 +6°C° 0 mm 2 mps 613 mmHg 45%
    07:00 +9°C° 0 mm 2 mps 615 mmHg 40%
    08:00 +14°C° 0 mm 2 mps 616 mmHg 35%
    09:00 +18°C° 0 mm 1 mps 617 mmHg 31%
    10:00 +19°C° 0 mm 1 mps 618 mmHg 29%
    11:00 +20°C° 0 mm 1 mps 618 mmHg 27%
    12:00 +22°C° 0 mm 1 mps 618 mmHg 26%
    13:00 +22°C° 0 mm 1 mps 618 mmHg 27%
    14:00 +22°C° 0 mm 1 mps 618 mmHg 29%
    15:00 +21°C° 0 mm 1 mps 617 mmHg 31%
    16:00 +20°C° 0 mm 1 mps 617 mmHg 41%
    17:00 +18°C° 0 mm 1 mps 616 mmHg 50%
    18:00 +15°C° 0 mm 1 mps 615 mmHg 60%
    19:00 +13°C° 0 mm 1 mps 615 mmHg 64%
    20:00 +12°C° 0 mm 1 mps 614 mmHg 68%
    21:00 +10°C° 0 mm 1 mps 614 mmHg 71%
    22:00 +10°C° 0 mm 1 mps 614 mmHg 69%
    23:00 +10°C° 0 mm 1 mps 613 mmHg 67%

    23 August, Friday

    Time Temperature Precipitation Wind Pressure Humidity
    00:00 +10°C° 0 mm 1 mps 613 mmHg 65%
    01:00 +10°C° 0 mm 1 mps 613 mmHg 65%
    02:00 +10°C° 0 mm 1 mps 613 mmHg 65%
    03:00 +10°C° 0 mm 1 mps 612 mmHg 65%
    04:00 +10°C° 0 mm 1 mps 613 mmHg 63%
    05:00 +10°C° 0 mm 1 mps 613 mmHg 62%
    06:00 +11°C° 0 mm 1 mps 613 mmHg 60%
    07:00 +14°C° 0 mm 1 mps 614 mmHg 52%
    08:00 +18°C° 0 mm 1 mps 615 mmHg 45%
    09:00 +21°C° 0 mm 1 mps 617 mmHg 37%
    10:00 +22°C° 0 mm 1 mps 617 mmHg 34%
    11:00 +21°C° 0 mm 2 mps 617 mmHg 32%
    12:00 +23°C° 0 mm 2 mps 617 mmHg 29%
    13:00 +23°C° 0 mm 2 mps 617 mmHg 30%
    14:00 +23°C° 0 mm 2 mps 616 mmHg 30%
    15:00 +23°C° 0 mm 2 mps 616 mmHg 31%
    16:00 +21°C° 0 mm 1 mps 615 mmHg 39%
    17:00 +20°C° 0 mm 1 mps 614 mmHg 46%
    18:00 +16°C° 0 mm 0 mps 613 mmHg 54%
    19:00 +15°C° 0 mm 1 mps 613 mmHg 55%
    20:00 +14°C° 0 mm 1 mps 613 mmHg 56%
    21:00 +12°C° 0 mm 1 mps 612 mmHg 58%
    22:00 +12°C° 0 mm 1 mps 612 mmHg 57%
    23:00 +12°C° 0 mm 1 mps 612 mmHg 57%

    24 August, Saturday

    Time Temperature Precipitation Wind Pressure Humidity
    00:00 +12°C° 0 mm 1 mps 612 mmHg 57%
    01:00 +12°C° 0 mm 1 mps 612 mmHg 57%
    02:00 +12°C° 0 mm 1 mps 612 mmHg 57%
    03:00 +12°C° 0 mm 2 mps 611 mmHg 56%
    04:00 +12°C° 0 mm 2 mps 612 mmHg 56%
    05:00 +12°C° 0 mm 2 mps 612 mmHg 56%
    06:00 +13°C° 0 mm 2 mps 612 mmHg 56%
    07:00 +16°C° 0 mm 1 mps 613 mmHg 49%
    08:00 +20°C° 0 mm 1 mps 615 mmHg 41%
    09:00 +23°C° 0 mm 1 mps 616 mmHg 34%
    10:00 +23°C° 0 mm 1 mps 616 mmHg 33%
    11:00 +24°C° 0 mm 1 mps 616 mmHg 33%
    12:00 +24°C° 0 mm 1 mps 616 mmHg 32%
    13:00 +23°C° 0 mm 1 mps 616 mmHg 36%
    14:00 +23°C° 0 mm 1 mps 615 mmHg 39%
    15:00 +22°C° 0 mm 1 mps 615 mmHg 42%
    16:00 +21°C° 0 mm 1 mps 614 mmHg 48%
    17:00 +19°C° 0 mm 1 mps 614 mmHg 53%
    18:00 +16°C° 0 mm 0 mps 613 mmHg 58%
    19:00 +16°C° 0 mm 1 mps 613 mmHg 59%
    20:00 +16°C° 0 mm 1 mps 613 mmHg 59%
    21:00 +15°C° 0 mm 1 mps 613 mmHg 59%
    22:00 +14°C° 0 mm 1 mps 613 mmHg 59%
    23:00 +14°C° 0 mm 1 mps 613 mmHg 58%
    Show more